User: anonymous   Login
Location: Caltech
(34.1382°N, 118.1253°W)
Time: 19:50:34
(UTC-07:00)
Language:

Hubble Space Telescope - Orbit

View from above orbital plane
View from above orbital plane
View from above satellite
View from above satellite

Ground track
Ground track

The orbit data is extracted from the following two-line orbital elements,

1 20580U 90037B   17202.22598491 +.00000426 +00000-0 +15202-4 0  9992
2 20580 028.4692 142.5929 0002811 174.9981 329.8315 15.08801155295349
Epoch (UTC): 21 July 2017 05:25:25
Eccentricity: 0.0002811
inclination: 28.4692°
perigee height: 538 km
apogee height: 542 km
right ascension of ascending node: 142.5929°
argument of perigee: 174.9981°
revolutions per day: 15.08801155
mean anomaly at epoch: 329.8315°
orbit number at epoch: 29534

The dashed part of the orbit path shows where the satellite is in the earth's shadow,  

DLR